Regional Weather Roundup
Issued by NWS

Home | Current Version | Previous Version | Text Only | Print | Product List | Glossary Off
Versions: 1 2 3 4 5 6 7 8 9 10 11 12 13 14 15 16 17 18 19 20 21 22 23 24 25 26 27 28 29 30 31 32 33 34 35 36 37 38 39 40 41 42 43 44 45 46 47 48 49 50

864
ASUS43 KMPX 241610
RWRMN
WEATHER ROUNDUP FOR MINNESOTA
NATIONAL WEATHER SERVICE TWIN CITIES/CHANHASSEN MN
1100 AM CDT MON APR 24 2017


NOTE: "FAIR" INDICATES FEW OR NO CLOUDS BELOW 12,000 FEET WITH NO
SIGNIFICANT WEATHER AND/OR OBSTRUCTIONS TO VISIBILITY. N/A MEANS
CURRENT SKY AND/OR WEATHER CONDITIONS ARE NOT AVAILABLE.

MNZ060>063-068>070-241700-
   Twin Cities Metro

CITY           SKY/WX    TMP DP  RH WIND       PRES   REMARKS
TWIN CITIES    CLOUDY    62  33  33 S17       29.75F
ST PAUL        CLOUDY    62  39  42 S12       29.76F
CRYSTAL        CLOUDY    62  33  33 S22G33    29.73F
BLAINE         PTSUNNY   64  34  32 S23G33    29.74F
LAKEVILLE      CLOUDY    61  34  36 S15G26    29.75F
EDEN PRAIRIE   CLOUDY    62  38  40 SE13      29.73F
SOUTH ST PAUL  CLOUDY    62  35  37 S10G18    29.75F
LAKE ELMO      FAIR      61  39  44 SE7       29.78F
$$
MNZ001>005-007-008-013>017-022>024-027-028-241700-
   Northwest Minnesota

CITY           SKY/WX    TMP DP  RH WIND       PRES   REMARKS
BEMIDJI        MOSUNNY   40  33  75 E12       29.67F
HALLOCK        LGT SNOW  34  32  93 E13G26    29.69F VSB 3/4 WCI  25
ROSEAU         LGT SNOW  34  28  80 E17       29.75F WCI  23
WARROAD        HVY RAIN  34  28  80 E22       29.76F WCI  22
THIEF RVR FALL CLOUDY    34  30  85 E22G29    29.66  WCI  22
CROOKSTON      CLOUDY    36  36 100 E12G20    29.66R
FOSSTON        MOSUNNY   45  34  65 E12       29.64F
DETROIT LAKES  CLOUDY    46  36  66 SE10      29.61S
MOORHEAD       CLOUDY    48  36  61 E8        29.58F
PARK RAPIDS    MOSUNNY   48  33  56 SE8       29.64F
MAHNOMEN       FAIR      43  34  72 E9        29.61S
$$
MNZ006-009>011-018-025>026-241700-
   North Central Minnesota

CITY           SKY/WX    TMP DP  RH WIND       PRES   REMARKS
BAUDETTE       CLOUDY    33  27  78 E22G30    29.76F WCI  21
FLAG ISLAND    HVY SNOW  30  30 100 E9G18     29.80F VSB<1/4 WCI  22
INTL FALLS     CLOUDY    33  26  75 E13       29.82F WCI  24
WASKISH        CLOUDY    34  28  80 E17G25    29.74F WCI  23
BIG FORK       CLOUDY    37  28  70 E9        29.75F
LONGVILLE      CLOUDY    46  36  66 E7G16     29.68F
GRAND RAPIDS   CLOUDY    42  31  64 SE8       29.75F
CRANE LAKE     CLOUDY    34  25  69 E3        29.88F
ORR            CLOUDY    36  25  64 MISG      29.80F
COOK           PTSUNNY   37  28  70 E9G17     29.81F
WALKER         FAIR      42  35  74 E8        29.67F
$$
MNZ012-019>021-037-241700-
   Northeast Minnesota

CITY           SKY/WX    TMP DP  RH WIND       PRES   REMARKS
DULUTH         PTSUNNY   37  28  70 E23G33    29.83F
ELY            MOSUNNY   36  27  69 E15G21    29.85F
HIBBING        MOSUNNY   39  31  72 SE16G23   29.79F
EVELETH        MOSUNNY   40  27  59 E10G20    29.82F
DULUTH HARBOR  CLOUDY    39  34  81 NE24      29.88F
TWO HARBORS    MOSUNNY   37  30  75 E25G35    29.87F
SILVER BAY     MOSUNNY   36  30  80 E28G33    29.91F
GRAND MARAIS     N/A     37  30  75 E23G37    29.98F
G MARAIS ARPRT CLOUDY    30  23  74 E18G28    29.93F WCI  18
$$
MNZ029>031-032-039>041-046>048-054>057-064-241700-
   West Central Minnesota

CITY           SKY/WX    TMP DP  RH WIND       PRES   REMARKS
FERGUS FALLS   CLOUDY    59  39  47 S17G23    29.57F
WHEATON        CLOUDY    61  36  39 S18G26    29.55F
MORRIS         CLOUDY    61  39  44 S17       29.58S
ALEXANDRIA     CLOUDY    60  37  42 S22G33    29.62F
ELBOW LAKE     FAIR      60  40  48 S23       29.58F
WADENA         CLOUDY    52  37  58 SE9       29.62F
GLENWOOD       CLOUDY    59  37  44 S24G33    29.63S
APPLETON       CLOUDY    63  36  36 S14G29    29.58F
BENSON         CLOUDY    64  27  24 SW24G33   29.61F
ORTONVILLE     CLOUDY    59  37  44 S13G21    29.56F
MADISON        CLOUDY    63  37  39 S23G31    29.58R
WILLMAR        FAIR      63  37  39 S12G20    29.65S
$$
MNZ033>034-036-042>043-049>051-058-059-241700-
   Central Minnesota

CITY           SKY/WX    TMP DP  RH WIND       PRES   REMARKS
ST CLOUD       CLOUDY    62  38  40 S20G31    29.68F
SAUK CENTRE    CLOUDY    57  38  48 S21G26    29.64F
PAYNESVILLE    CLOUDY    59  34  38 S17G29    29.67S
AITKIN         MOSUNNY   52  34  50 E8        29.70F
PINE RIVER     CLOUDY    50  37  62 SE15G22   29.70F
BRAINERD       MOSUNNY   52  38  58 E6        29.68F
STAPLES        CLOUDY    54  36  50 SE9G20    29.63F
LONG PRAIRIE   FAIR      59  37  44 SE24      29.64F
LITTLE FALLS   CLOUDY    59  36  41 S18       29.67F
LITCHFIELD     MOSUNNY   64  39  39 S9G18     29.68F
BUFFALO        CLOUDY    62  32  32 S16G22    29.72S
MAPLE LAKE     CLOUDY    63  37  38 S16G26    29.71F
HUTCHINSON     CLOUDY    61  38  42 S17G28    29.70F
$$
MNZ037-044-045-052-053-241700-
   East Central Minnesota

CITY           SKY/WX    TMP DP  RH WIND       PRES   REMARKS
PRINCETON      CLOUDY    64  34  32 S16G26    29.71F
MORA           MOSUNNY   54  37  54 SE12      29.75F
CAMBRIDGE      CLOUDY    64  45  48 SE16      29.71F
RUSH CITY      CLOUDY    60  39  46 SE13G20   29.75F
MOOSE LAKE     MOSUNNY   45  32  61 E9G16     29.77F
HINCKLEY       FAIR      54  39  58 SE7G16    29.76F
CLOQUET        MOSUNNY   39  28  65 E17G28    29.80F
MCGREGOR       CLOUDY    46  34  61 SE13G24   29.74F
$$
MNZ071>073-080-081-089-090-097-098-241700-
   Southwest Minnesota

CITY           SKY/WX    TMP DP  RH WIND       PRES   REMARKS
MONTEVIDEO     CLOUDY    63  36  36 SW18G24   29.61R
GRANITE FALLS  CLOUDY    61  39  44 SE23      29.64S
CANBY          CLOUDY    59  37  42 S16G28    29.59S
MARSHALL       CLOUDY    60  38  43 S24G32    29.60F
REDWOOD FALLS  CLOUDY    60  34  37 S23G36    29.64F
OLIVIA         CLOUDY    59  37  44 S21G28    29.64F
PIPESTONE      CLOUDY    57  34  41 SW30G38   29.60S
WINDOM         CLOUDY    61  30  31 S23G36    29.65F
WORTHINGTON    CLOUDY    60  33  36 S32G40    29.62F
JACKSON        CLOUDY    61  32  33 S25G36    29.69F
TRACY          CLOUDY    61  37  41 S23G32    29.62F
SLAYTON        CLOUDY    58  36  43 S24G33    29.62F
$$
MNZ065>067-074>077-082>085-091>093-241700-
   South Central Minnesota

CITY           SKY/WX    TMP DP  RH WIND       PRES   REMARKS
MANKATO        CLOUDY    63  33  32 S26G37    29.71F
NEW ULM        CLOUDY    61  34  36 S22G35    29.68F
ST JAMES       CLOUDY    63  34  34 S22G39    29.69F
FAIRMONT       CLOUDY    64  33  31 S35G44    29.69F
GLENCOE        CLOUDY    61  39  43 S13G25    29.71S
FARIBAULT      CLOUDY    63  34  34 S23G31    29.76F
OWATONNA       CLOUDY    63  34  34 S21G28    29.76F
WASECA         CLOUDY    63  32  31 S29G37    29.76F
ALBERT LEA     CLOUDY    63  30  29 S18G25    29.77F
$$
MNZ078>079-086>088-094>096-241700-
   Southeast Minnesota

CITY           SKY/WX    TMP DP  RH WIND       PRES   REMARKS
ROCHESTER      CLOUDY    63  33  32 S24G35    29.82F
RED WING       CLOUDY    66  28  24 S17G28    29.78F
STANTON        CLOUDY    65  32  28 S21G31    29.75F
DODGE CENTER   CLOUDY    61  36  39 S26G33    29.80F
WINONA         CLOUDY    61  41  48 E8        29.85F
AUSTIN         MOSUNNY   63  34  34 S18G29    29.80F
PRESTON        PTSUNNY   61  33  34 S21G28    29.83F
$$
ABBREVIATIONS USED IN REMARKS
   TC - TEMPERATURES IN CELSIUS
  WCI - WIND CHILL INDEX
   HX - HEAT INDEX
  VSB - VISIBILITY
$$




USA.gov is the U.S. government's official web portal to all federal, state and local government web resources and services.